sat.trackr.live / text

‹ back to catalog

YUNYAO-1 43

NORAD 63344 · 2025-059A

PAYLOAD ACTIVE UNKNOWN

§ Identity

Operator
Country
PRC
Launch date
2025-03-21
Launch site
JSC
Launch vehicle
Mass (kg)
RCS (m²)

External: N2YO · Heavens-Above · Gunter

§ Orbital elements

Epoch: 2026-09-21T23:01:23.988288Z

Period
95.28 min
Inclination
97.6140°
Eccentricity
0.0014044
Mean motion
15.11398909 rev/d
Perigee alt
522.2 km
Apogee alt
541.6 km
Semi-major
6,910.1 km
B*
1.0677e-4
RAAN
85.8631°
Arg perigee
175.6490°
Mean anomaly
184.4865°
Rev number
8,291

§ Raw data

YUNYAO-1 431 63344U 25059A   26264.95930542  .00001740  00000+0  10677-3 0  99932 63344  97.6140  85.8631 0014044 175.6490 184.4865 15.11398909 82917

JSON: /api/v1/satellites/63344 · /tle

For live sub-satellite position, see the globe view (requires WebGL).

§ Visibility from observer

Set your observer location to see the next 7 days of passes ≥ 10°. The values pass through the URL so the page stays shareable.

No JS? Fill the form by hand. The geolocation button needs JavaScript.